Time,TemperatureF,DewpointF,PressureIn,WindDirection,WindDirectionDegrees,WindSpeedMPH,WindSpeedGustMPH,Humidity,HourlyPrecipIn,Conditions,Clouds,dailyrainin,SoftwareType,DateUTC
2013-04-24 00:00:00,48.6,45.2,30.08,ESE,118,0.0,0.0,88,0.00,,,0.00,Wunderground v.1.15,2013-04-24 04:00:00,
2013-04-24 00:05:00,48.5,45.4,30.09,ESE,118,0.0,0.0,89,0.00,,,0.00,Wunderground v.1.15,2013-04-24 04:05:00,
2013-04-24 00:10:00,48.3,44.9,30.09,ESE,118,0.0,0.0,88,0.00,,,0.00,Wunderground v.1.15,2013-04-24 04:10:00,
2013-04-24 00:20:00,48.0,44.9,30.09,ESE,118,0.0,0.0,89,0.00,,,0.00,Wunderground v.1.15,2013-04-24 04:20:00,
2013-04-24 00:25:00,48.0,45.2,30.09,ESE,118,0.0,0.0,90,0.00,,,0.00,Wunderground v.1.15,2013-04-24 04:25:00,
2013-04-24 00:35:00,47.8,45.0,30.09,ESE,118,0.0,0.0,90,0.00,,,0.00,Wunderground v.1.15,2013-04-24 04:35:00,
2013-04-24 00:40:00,47.7,44.6,30.09,ESE,118,0.0,0.0,89,0.00,,,0.00,Wunderground v.1.15,2013-04-24 04:40:00,
2013-04-24 00:44:00,47.6,44.8,30.09,ESE,118,0.0,0.0,90,0.00,,,0.00,Wunderground v.1.15,2013-04-24 04:44:00,
2013-04-24 00:50:00,47.5,44.7,30.09,ESE,118,0.0,0.0,90,0.00,,,0.00,Wunderground v.1.15,2013-04-24 04:50:00,
2013-04-24 00:55:00,47.5,44.7,30.09,ESE,118,0.0,0.0,90,0.00,,,0.00,Wunderground v.1.15,2013-04-24 04:55:00,
2013-04-24 01:05:00,47.4,44.9,30.09,ESE,118,0.0,0.0,91,0.00,,,0.00,Wunderground v.1.15,2013-04-24 05:05:00,
2013-04-24 01:15:00,47.1,44.6,30.09,ESE,118,0.0,0.0,91,0.00,,,0.00,Wunderground v.1.15,2013-04-24 05:15:00,
2013-04-24 01:24:00,46.9,44.4,30.09,ESE,117,0.0,0.0,91,0.00,,,0.00,Wunderground v.1.15,2013-04-24 05:24:00,
2013-04-24 01:30:00,46.7,44.2,30.08,ESE,118,0.0,0.0,91,0.00,,,0.00,Wunderground v.1.15,2013-04-24 05:30:00,
2013-04-24 01:35:00,46.5,44.3,30.08,ESE,118,0.0,0.0,92,0.00,,,0.00,Wunderground v.1.15,2013-04-24 05:35:00,
2013-04-24 01:45:00,46.1,44.2,30.08,ESE,118,0.0,0.0,93,0.00,,,0.00,Wunderground v.1.15,2013-04-24 05:45:00,
2013-04-24 01:55:00,46.0,44.1,30.08,ESE,118,0.0,0.0,93,0.00,,,0.00,Wunderground v.1.15,2013-04-24 05:55:00,
2013-04-24 02:00:00,45.8,43.6,30.07,ESE,118,0.0,0.0,92,0.00,,,0.00,Wunderground v.1.15,2013-04-24 06:00:00,
2013-04-24 02:05:00,45.7,43.5,30.07,ESE,118,0.0,0.0,92,0.00,,,0.00,Wunderground v.1.15,2013-04-24 06:05:00,
2013-04-24 02:15:00,45.4,43.2,30.07,ESE,118,0.0,0.0,92,0.00,,,0.00,Wunderground v.1.15,2013-04-24 06:15:00,
2013-04-24 02:20:00,45.2,43.0,30.07,ESE,118,0.0,0.0,92,0.00,,,0.00,Wunderground v.1.15,2013-04-24 06:20:00,
2013-04-24 02:30:00,45.0,43.1,30.06,ESE,118,0.0,0.0,93,0.00,,,0.00,Wunderground v.1.15,2013-04-24 06:30:00,
2013-04-24 02:35:00,45.0,43.1,30.06,ESE,118,0.0,0.0,93,0.00,,,0.00,Wunderground v.1.15,2013-04-24 06:35:00,
2013-04-24 02:45:00,44.7,42.8,30.06,ESE,118,0.0,0.0,93,0.00,,,0.00,Wunderground v.1.15,2013-04-24 06:45:00,
2013-04-24 02:50:00,44.7,42.8,30.05,ESE,118,0.0,0.0,93,0.00,,,0.00,Wunderground v.1.15,2013-04-24 06:50:00,
2013-04-24 03:00:00,44.6,42.7,30.05,ESE,118,0.0,0.0,93,0.00,,,0.00,Wunderground v.1.15,2013-04-24 07:00:00,
2013-04-24 03:05:00,44.4,42.5,30.05,ESE,118,0.0,0.0,93,0.00,,,0.00,Wunderground v.1.15,2013-04-24 07:05:00,
2013-04-24 03:14:00,44.3,42.4,30.04,ESE,118,0.0,0.0,93,0.00,,,0.00,Wunderground v.1.15,2013-04-24 07:14:00,
2013-04-24 03:20:00,44.3,42.4,30.04,ESE,118,0.0,0.0,93,0.00,,,0.00,Wunderground v.1.15,2013-04-24 07:20:00,
2013-04-24 03:25:00,44.2,42.3,30.04,ESE,118,0.0,0.0,93,0.00,,,0.00,Wunderground v.1.15,2013-04-24 07:25:00,
2013-04-24 03:35:00,44.2,42.6,30.04,ESE,118,0.0,0.0,94,0.00,,,0.00,Wunderground v.1.15,2013-04-24 07:35:00,
2013-04-24 03:40:00,44.2,42.6,30.04,ESE,118,0.0,0.0,94,0.00,,,0.00,Wunderground v.1.15,2013-04-24 07:40:00,
2013-04-24 03:50:00,44.1,42.5,30.04,ESE,118,0.0,0.0,94,0.00,,,0.00,Wunderground v.1.15,2013-04-24 07:50:00,
2013-04-24 04:00:00,44.0,42.4,30.04,ESE,118,0.0,0.0,94,0.00,,,0.00,Wunderground v.1.15,2013-04-24 08:00:00,
2013-04-24 04:05:00,43.9,42.3,30.04,ESE,118,0.0,0.0,94,0.00,,,0.00,Wunderground v.1.15,2013-04-24 08:05:00,
2013-04-24 04:15:00,43.6,41.7,30.03,ESE,118,0.0,0.0,93,0.00,,,0.00,Wunderground v.1.15,2013-04-24 08:15:00,
2013-04-24 04:25:00,43.3,41.4,30.04,ESE,118,0.0,0.0,93,0.00,,,0.00,Wunderground v.1.15,2013-04-24 08:25:00,
2013-04-24 04:30:00,43.3,41.7,30.04,ESE,118,0.0,0.0,94,0.00,,,0.00,Wunderground v.1.15,2013-04-24 08:30:00,
2013-04-24 04:40:00,43.4,42.1,30.04,ESE,118,0.0,0.0,95,0.00,,,0.00,Wunderground v.1.15,2013-04-24 08:40:00,
2013-04-24 04:49:00,43.3,41.7,30.03,ESE,118,0.0,0.0,94,0.00,,,0.00,Wunderground v.1.15,2013-04-24 08:49:00,
2013-04-24 04:55:00,43.2,41.6,30.03,ESE,118,0.0,0.0,94,0.00,,,0.00,Wunderground v.1.15,2013-04-24 08:55:00,
2013-04-24 05:05:00,43.1,41.5,30.03,ESE,118,0.0,0.0,94,0.00,,,0.00,Wunderground v.1.15,2013-04-24 09:05:00,
2013-04-24 05:15:00,42.9,41.3,30.03,ESE,118,0.0,0.0,94,0.00,,,0.00,Wunderground v.1.15,2013-04-24 09:15:00,
2013-04-24 05:25:00,42.7,41.1,30.03,ESE,118,0.0,0.0,94,0.00,,,0.00,Wunderground v.1.15,2013-04-24 09:25:00,
2013-04-24 05:30:00,42.5,40.9,30.03,ESE,118,0.0,0.0,94,0.00,,,0.00,Wunderground v.1.15,2013-04-24 09:30:00,
2013-04-24 05:40:00,42.2,40.6,30.03,ESE,118,0.0,0.0,94,0.00,,,0.00,Wunderground v.1.15,2013-04-24 09:40:00,
2013-04-24 05:45:00,42.1,40.5,30.03,ESE,118,0.0,0.0,94,0.00,,,0.00,Wunderground v.1.15,2013-04-24 09:45:00,
2013-04-24 05:55:00,41.9,40.3,30.03,ESE,118,0.0,0.0,94,0.00,,,0.00,Wunderground v.1.15,2013-04-24 09:55:00,
2013-04-24 06:00:00,41.8,40.2,30.03,ESE,118,0.0,0.0,94,0.00,,,0.00,Wunderground v.1.15,2013-04-24 10:00:00,
2013-04-24 06:05:00,41.8,40.2,30.03,ESE,118,0.0,0.0,94,0.00,,,0.00,Wunderground v.1.15,2013-04-24 10:05:00,
2013-04-24 06:14:00,41.7,40.1,30.03,ESE,118,0.0,0.0,94,0.00,,,0.00,Wunderground v.1.15,2013-04-24 10:14:00,
2013-04-24 06:20:00,41.6,40.0,30.03,ESE,118,0.0,0.0,94,0.00,,,0.00,Wunderground v.1.15,2013-04-24 10:20:00,
2013-04-24 06:30:00,41.5,39.9,30.03,ESE,118,0.0,0.0,94,0.00,,,0.00,Wunderground v.1.15,2013-04-24 10:30:00,
2013-04-24 06:35:00,41.4,39.8,30.03,ESE,118,0.0,0.0,94,0.00,,,0.00,Wunderground v.1.15,2013-04-24 10:35:00,
2013-04-24 06:45:00,41.3,39.7,30.03,ESE,118,0.0,0.0,94,0.00,,,0.00,Wunderground v.1.15,2013-04-24 10:45:00,
2013-04-24 06:50:00,41.3,40.0,30.03,ESE,117,0.0,0.0,95,0.00,,,0.00,Wunderground v.1.15,2013-04-24 10:50:00,
2013-04-24 07:00:00,41.6,40.3,30.04,ESE,118,0.0,0.0,95,0.00,,,0.00,Wunderground v.1.15,2013-04-24 11:00:00,
2013-04-24 07:05:00,41.8,40.5,30.03,ESE,118,0.0,0.0,95,0.00,,,0.00,Wunderground v.1.15,2013-04-24 11:05:00,
2013-04-24 07:14:00,42.0,40.7,30.04,ESE,118,0.0,0.0,95,0.00,,,0.00,Wunderground v.1.15,2013-04-24 11:14:00,
2013-04-24 07:20:00,42.0,40.7,30.04,ESE,118,0.0,0.0,95,0.00,,,0.00,Wunderground v.1.15,2013-04-24 11:20:00,
2013-04-24 07:25:00,42.0,40.7,30.04,ESE,118,0.0,0.0,95,0.00,,,0.00,Wunderground v.1.15,2013-04-24 11:25:00,
2013-04-24 07:35:00,42.2,40.9,30.03,ESE,118,0.0,0.0,95,0.00,,,0.00,Wunderground v.1.15,2013-04-24 11:35:00,
2013-04-24 07:40:00,42.4,41.1,30.03,ESE,118,0.0,0.0,95,0.00,,,0.00,Wunderground v.1.15,2013-04-24 11:40:00,
2013-04-24 07:50:00,42.7,41.4,30.04,ESE,118,0.0,0.0,95,0.00,,,0.00,Wunderground v.1.15,2013-04-24 11:50:00,
2013-04-24 08:00:00,43.2,42.1,30.03,ESE,118,0.0,0.0,96,0.00,,,0.00,Wunderground v.1.15,2013-04-24 12:00:00,
2013-04-24 08:05:00,43.8,42.7,30.03,ESE,118,0.0,0.0,96,0.00,,,0.00,Wunderground v.1.15,2013-04-24 12:05:00,
2013-04-24 08:15:00,44.8,44.0,30.03,ESE,118,0.0,0.0,97,0.00,,,0.00,Wunderground v.1.15,2013-04-24 12:15:00,
2013-04-24 08:25:00,45.9,45.1,30.03,ESE,118,0.0,0.0,97,0.00,,,0.00,Wunderground v.1.15,2013-04-24 12:25:00,
2013-04-24 08:35:00,47.1,46.3,30.02,ESE,118,0.0,0.0,97,0.00,,,0.00,Wunderground v.1.15,2013-04-24 12:35:00,
2013-04-24 08:40:00,47.6,46.8,30.02,ESE,118,0.0,0.0,97,0.00,,,0.00,Wunderground v.1.15,2013-04-24 12:40:00,
2013-04-24 08:49:00,48.9,47.8,30.02,South,187,0.0,0.0,96,0.00,,,0.00,Wunderground v.1.15,2013-04-24 12:49:00,
2013-04-24 08:55:00,49.6,48.2,30.02,South,187,0.0,0.0,95,0.00,,,0.00,Wunderground v.1.15,2013-04-24 12:55:00,
2013-04-24 09:05:00,50.9,48.9,30.01,South,191,0.0,0.0,93,0.00,,,0.00,Wunderground v.1.15,2013-04-24 13:05:00,
2013-04-24 09:15:00,52.1,49.6,30.01,South,171,0.0,1.0,91,0.00,,,0.00,Wunderground v.1.15,2013-04-24 13:15:00,
2013-04-24 09:25:00,53.2,50.0,30.00,South,186,0.0,1.0,89,0.00,,,0.00,Wunderground v.1.15,2013-04-24 13:25:00,
2013-04-24 09:30:00,53.8,50.3,30.00,South,186,0.0,0.0,88,0.00,,,0.00,Wunderground v.1.15,2013-04-24 13:30:00,
2013-04-24 09:35:00,54.3,50.8,30.00,SSW,199,0.0,0.0,88,0.00,,,0.00,Wunderground v.1.15,2013-04-24 13:35:00,
2013-04-24 09:45:00,55.5,51.7,29.99,South,183,1.0,1.0,87,0.00,,,0.00,Wunderground v.1.15,2013-04-24 13:45:00,
2013-04-24 09:55:00,56.9,52.1,29.99,South,179,0.0,1.0,84,0.00,,,0.00,Wunderground v.1.15,2013-04-24 13:55:00,
2013-04-24 10:00:00,57.6,52.8,29.99,South,172,0.0,0.0,84,0.00,,,0.00,Wunderground v.1.15,2013-04-24 14:00:00,
2013-04-24 10:05:00,58.2,52.7,29.99,SSE,159,0.0,0.0,82,0.00,,,0.00,Wunderground v.1.15,2013-04-24 14:05:00,
2013-04-24 10:14:00,59.0,53.2,29.99,WSW,243,0.0,0.0,81,0.00,,,0.00,Wunderground v.1.15,2013-04-24 14:14:00,
2013-04-24 10:20:00,59.8,53.6,29.99,South,178,0.0,0.0,80,0.00,,,0.00,Wunderground v.1.15,2013-04-24 14:20:00,
2013-04-24 10:30:00,60.6,53.7,29.98,SSW,198,0.0,0.0,78,0.00,,,0.00,Wunderground v.1.15,2013-04-24 14:30:00,
2013-04-24 10:35:00,61.0,54.1,29.98,South,191,0.0,1.0,78,0.00,,,0.00,Wunderground v.1.15,2013-04-24 14:35:00,
2013-04-24 10:45:00,61.9,53.9,29.98,South,173,1.0,5.0,75,0.00,,,0.00,Wunderground v.1.15,2013-04-24 14:45:00,
2013-04-24 10:54:00,62.7,54.7,29.97,SSW,192,1.0,2.0,75,0.00,,,0.00,Wunderground v.1.15,2013-04-24 14:54:00,
2013-04-24 11:00:00,63.2,54.8,29.97,SSW,213,1.0,1.0,74,0.00,,,0.00,Wunderground v.1.15,2013-04-24 15:00:00,
2013-04-24 11:05:00,63.6,55.2,29.97,South,172,1.0,1.0,74,0.00,,,0.00,Wunderground v.1.15,2013-04-24 15:05:00,
2013-04-24 11:15:00,64.6,56.1,29.96,South,178,1.0,5.0,74,0.00,,,0.00,Wunderground v.1.15,2013-04-24 15:15:00,
2013-04-24 11:20:00,65.1,56.6,29.95,SSW,202,1.0,1.0,74,0.00,,,0.00,Wunderground v.1.15,2013-04-24 15:20:00,
2013-04-24 11:30:00,66.3,56.2,29.95,South,189,2.0,2.0,70,0.00,,,0.00,Wunderground v.1.15,2013-04-24 15:30:00,
2013-04-24 11:35:00,66.9,56.8,29.95,South,174,2.0,2.0,70,0.00,,,0.00,Wunderground v.1.15,2013-04-24 15:35:00,
2013-04-24 11:45:00,68.2,56.8,29.95,SE,142,1.0,2.0,67,0.00,,,0.00,Wunderground v.1.15,2013-04-24 15:45:00,
2013-04-24 11:55:00,69.3,57.9,29.93,SSW,195,1.0,2.0,67,0.00,,,0.00,Wunderground v.1.15,2013-04-24 15:55:00,
2013-04-24 12:00:00,70.1,57.8,29.93,South,171,1.0,1.0,65,0.00,,,0.00,Wunderground v.1.15,2013-04-24 16:00:00,
2013-04-24 12:05:00,70.8,58.4,29.93,SSW,203,1.0,4.0,65,0.00,,,0.00,Wunderground v.1.15,2013-04-24 16:05:00,
2013-04-24 12:14:00,71.9,57.3,29.92,SSE,163,2.0,2.0,60,0.00,,,0.00,Wunderground v.1.15,2013-04-24 16:14:00,
2013-04-24 12:20:00,72.3,57.2,29.91,South,170,1.0,2.0,59,0.00,,,0.00,Wunderground v.1.15,2013-04-24 16:20:00,
2013-04-24 12:30:00,72.8,57.6,29.91,SSW,192,3.0,3.0,59,0.00,,,0.00,Wunderground v.1.15,2013-04-24 16:30:00,
2013-04-24 12:35:00,73.4,57.2,29.91,SSE,156,2.0,3.0,57,0.00,,,0.00,Wunderground v.1.15,2013-04-24 16:35:00,
2013-04-24 12:45:00,74.9,59.1,29.90,SSW,202,2.0,2.0,58,0.00,,,0.00,Wunderground v.1.15,2013-04-24 16:45:00,
2013-04-24 12:50:00,75.2,58.9,29.90,South,174,2.0,2.0,57,0.00,,,0.00,Wunderground v.1.15,2013-04-24 16:50:00,
2013-04-24 13:00:00,75.7,58.4,29.90,SE,139,2.0,2.0,55,0.00,,,0.00,Wunderground v.1.15,2013-04-24 17:00:00,
2013-04-24 13:05:00,76.2,57.8,29.90,SE,146,2.0,2.0,53,0.00,,,0.00,Wunderground v.1.15,2013-04-24 17:05:00,
2013-04-24 13:14:00,76.1,58.8,29.90,SSW,193,2.0,4.0,55,0.00,,,0.00,Wunderground v.1.15,2013-04-24 17:14:00,
2013-04-24 13:20:00,76.1,58.8,29.89,South,173,3.0,3.0,55,0.00,,,0.00,Wunderground v.1.15,2013-04-24 17:20:00,
2013-04-24 13:25:00,76.2,58.3,29.89,SE,126,2.0,4.0,54,0.00,,,0.00,Wunderground v.1.15,2013-04-24 17:25:00,
2013-04-24 13:35:00,77.2,59.3,29.89,SSW,197,2.0,4.0,54,0.00,,,0.00,Wunderground v.1.15,2013-04-24 17:35:00,
2013-04-24 13:40:00,77.3,59.4,29.89,SE,127,2.0,3.0,54,0.00,,,0.00,Wunderground v.1.15,2013-04-24 17:40:00,
2013-04-24 13:50:00,77.6,59.6,29.88,SSW,197,2.0,2.0,54,0.00,,,0.00,Wunderground v.1.15,2013-04-24 17:50:00,
2013-04-24 13:55:00,77.9,58.9,29.89,South,183,2.0,2.0,52,0.00,,,0.00,Wunderground v.1.15,2013-04-24 17:55:00,
2013-04-24 14:05:00,78.2,59.1,29.88,SSE,167,2.0,3.0,52,0.00,,,0.00,Wunderground v.1.15,2013-04-24 18:05:00,
2013-04-24 14:15:00,78.7,60.1,29.88,SSW,201,2.0,5.0,53,0.00,,,0.00,Wunderground v.1.15,2013-04-24 18:15:00,
2013-04-24 14:25:00,78.7,58.5,29.88,SSW,193,2.0,5.0,50,0.00,,,0.00,Wunderground v.1.15,2013-04-24 18:25:00,
2013-04-24 14:30:00,78.7,59.0,29.87,ESE,122,2.0,2.0,51,0.00,,,0.00,Wunderground v.1.15,2013-04-24 18:30:00,
2013-04-24 14:40:00,79.6,59.3,29.87,South,170,2.0,2.0,50,0.00,,,0.00,Wunderground v.1.15,2013-04-24 18:40:00,
2013-04-24 14:50:00,79.7,58.3,29.85,SSW,192,2.0,7.0,48,0.00,,,0.00,Wunderground v.1.15,2013-04-24 18:50:00,
2013-04-24 14:55:00,79.3,58.5,29.85,South,179,3.0,7.0,49,0.00,,,0.00,Wunderground v.1.15,2013-04-24 18:55:00,
2013-04-24 15:05:00,78.3,57.0,29.85,SSE,163,2.0,3.0,48,0.00,,,0.00,Wunderground v.1.15,2013-04-24 19:05:00,
2013-04-24 15:15:00,77.1,56.5,29.85,SSW,199,2.0,2.0,49,0.00,,,0.00,Wunderground v.1.15,2013-04-24 19:15:00,
2013-04-24 15:25:00,76.7,57.7,29.84,South,180,1.0,2.0,52,0.00,,,0.00,Wunderground v.1.15,2013-04-24 19:25:00,
2013-04-24 15:30:00,76.7,57.2,29.84,South,183,1.0,1.0,51,0.00,,,0.00,Wunderground v.1.15,2013-04-24 19:30:00,
2013-04-24 15:40:00,76.5,57.0,29.84,SSW,196,2.0,2.0,51,0.00,,,0.00,Wunderground v.1.15,2013-04-24 19:40:00,
2013-04-24 15:45:00,76.5,57.0,29.83,South,191,2.0,2.0,51,0.00,,,0.00,Wunderground v.1.15,2013-04-24 19:45:00,
2013-04-24 15:55:00,77.1,57.6,29.84,South,182,1.0,1.0,51,0.00,,,0.00,Wunderground v.1.15,2013-04-24 19:55:00,
2013-04-24 16:00:00,77.5,57.4,29.83,SE,146,1.0,1.0,50,0.00,,,0.00,Wunderground v.1.15,2013-04-24 20:00:00,
2013-04-24 16:05:00,77.4,56.7,29.83,SSE,160,2.0,2.0,49,0.00,,,0.00,Wunderground v.1.15,2013-04-24 20:05:00,
2013-04-24 16:15:00,76.7,56.1,29.82,SSW,192,3.0,4.0,49,0.00,,,0.00,Wunderground v.1.15,2013-04-24 20:15:00,
2013-04-24 16:20:00,77.1,55.9,29.82,South,176,2.0,3.0,48,0.00,,,0.00,Wunderground v.1.15,2013-04-24 20:20:00,
2013-04-24 16:30:00,78.2,55.7,29.82,SW,214,2.0,4.0,46,0.00,,,0.00,Wunderground v.1.15,2013-04-24 20:30:00,
2013-04-24 16:35:00,78.7,56.8,29.82,East,94,2.0,4.0,47,0.00,,,0.00,Wunderground v.1.15,2013-04-24 20:35:00,
2013-04-24 16:45:00,78.6,56.1,29.81,South,186,3.0,5.0,46,0.00,,,0.00,Wunderground v.1.15,2013-04-24 20:45:00,
2013-04-24 16:54:00,77.4,56.2,29.81,SSW,196,2.0,3.0,48,0.00,,,0.00,Wunderground v.1.15,2013-04-24 20:54:00,
2013-04-24 17:00:00,78.0,56.7,29.81,South,191,2.0,2.0,48,0.00,,,0.00,Wunderground v.1.15,2013-04-24 21:00:00,
2013-04-24 17:05:00,78.5,56.6,29.80,SSW,210,3.0,6.0,47,0.00,,,0.00,Wunderground v.1.15,2013-04-24 21:05:00,
2013-04-24 17:14:00,78.1,56.2,29.80,South,184,3.0,3.0,47,0.00,,,0.00,Wunderground v.1.15,2013-04-24 21:14:00,
2013-04-24 17:20:00,77.8,56.5,29.80,SSE,158,3.0,3.0,48,0.00,,,0.00,Wunderground v.1.15,2013-04-24 21:20:00,
2013-04-24 17:25:00,77.3,55.5,29.80,West,274,3.0,6.0,47,0.00,,,0.00,Wunderground v.1.15,2013-04-24 21:25:00,
2013-04-24 17:35:00,76.9,55.7,29.80,SSE,154,2.0,3.0,48,0.00,,,0.00,Wunderground v.1.15,2013-04-24 21:35:00,
2013-04-24 17:40:00,76.8,55.6,29.79,South,180,2.0,2.0,48,0.00,,,0.00,Wunderground v.1.15,2013-04-24 21:40:00,
2013-04-24 17:50:00,76.6,56.6,29.79,South,188,1.0,3.0,50,0.00,,,0.00,Wunderground v.1.15,2013-04-24 21:50:00,
2013-04-24 18:00:00,76.5,56.5,29.79,SSE,162,2.0,2.0,50,0.00,,,0.00,Wunderground v.1.15,2013-04-24 22:00:00,
2013-04-24 18:05:00,76.2,56.2,29.79,South,183,2.0,2.0,50,0.00,,,0.00,Wunderground v.1.15,2013-04-24 22:05:00,
2013-04-24 18:14:00,75.8,56.4,29.80,WSW,239,2.0,4.0,51,0.00,,,0.00,Wunderground v.1.15,2013-04-24 22:14:00,
2013-04-24 18:19:00,75.4,56.0,29.79,SW,222,3.0,3.0,51,0.00,,,0.00,Wunderground v.1.15,2013-04-24 22:19:00,
2013-04-24 18:25:00,75.0,56.7,29.80,South,185,3.0,4.0,53,0.00,,,0.00,Wunderground v.1.15,2013-04-24 22:25:00,
2013-04-24 18:35:00,74.6,56.9,29.81,SE,139,3.0,5.0,54,0.00,,,0.00,Wunderground v.1.15,2013-04-24 22:35:00,
2013-04-24 18:40:00,74.5,56.8,29.81,SSE,157,2.0,2.0,54,0.00,,,0.00,Wunderground v.1.15,2013-04-24 22:40:00,
2013-04-24 18:50:00,74.0,56.8,29.82,SSW,200,3.0,3.0,55,0.00,,,0.00,Wunderground v.1.15,2013-04-24 22:50:00,
2013-04-24 18:59:00,73.2,57.1,29.83,SE,133,1.0,1.0,57,0.00,,,0.00,Wunderground v.1.15,2013-04-24 22:59:00,
2013-04-24 19:05:00,72.8,56.7,29.84,SSW,195,1.0,3.0,57,0.00,,,0.00,Wunderground v.1.15,2013-04-24 23:05:00,
2013-04-24 19:15:00,72.5,56.9,29.85,SSW,207,2.0,3.0,58,0.00,,,0.00,Wunderground v.1.15,2013-04-24 23:15:00,
2013-04-24 19:25:00,71.3,59.8,29.87,South,169,1.0,2.0,67,0.00,,,0.01,Wunderground v.1.15,2013-04-24 23:25:00,
2013-04-24 19:35:00,68.1,60.6,29.85,SSW,194,1.0,3.0,77,0.00,,,0.01,Wunderground v.1.15,2013-04-24 23:35:00,
2013-04-24 19:44:00,66.5,60.1,29.84,SSW,208,0.0,1.0,80,0.00,,,0.01,Wunderground v.1.15,2013-04-24 23:44:00,
2013-04-24 19:50:00,66.1,60.1,29.84,SSW,208,0.0,0.0,81,0.00,,,0.01,Wunderground v.1.15,2013-04-24 23:50:00,
2013-04-24 20:00:00,65.5,60.5,29.85,SSW,207,0.0,0.0,84,0.00,,,0.01,Wunderground v.1.15,2013-04-25 00:00:00,
2013-04-24 20:05:00,65.2,60.2,29.86,SSW,207,0.0,0.0,84,0.00,,,0.01,Wunderground v.1.15,2013-04-25 00:05:00,
2013-04-24 20:14:00,64.5,60.2,29.87,SSW,208,0.0,0.0,86,0.00,,,0.01,Wunderground v.1.15,2013-04-25 00:14:00,
2013-04-24 20:20:00,64.2,60.2,29.86,SSW,207,0.0,0.0,87,0.00,,,0.01,Wunderground v.1.15,2013-04-25 00:20:00,
2013-04-24 20:25:00,63.9,60.0,29.87,SSW,208,0.0,0.0,87,0.00,,,0.01,Wunderground v.1.15,2013-04-25 00:25:00,
2013-04-24 20:35:00,63.7,59.1,29.86,SSW,208,0.0,0.0,85,0.00,,,0.01,Wunderground v.1.15,2013-04-25 00:35:00,
2013-04-24 20:40:00,63.9,59.0,29.87,SSW,208,0.0,0.0,84,0.00,,,0.01,Wunderground v.1.15,2013-04-25 00:40:00,
2013-04-24 20:50:00,64.2,58.9,29.87,SSW,208,0.0,0.0,83,0.00,,,0.01,Wunderground v.1.15,2013-04-25 00:50:00,
2013-04-24 21:00:00,64.4,58.8,29.87,SSW,208,0.0,0.0,82,0.00,,,0.01,Wunderground v.1.15,2013-04-25 01:00:00,
2013-04-24 21:05:00,64.5,59.2,29.87,SSE,154,0.0,0.0,83,0.00,,,0.01,Wunderground v.1.15,2013-04-25 01:05:00,
2013-04-24 21:15:00,64.4,59.1,29.88,SSE,154,0.0,0.0,83,0.00,,,0.01,Wunderground v.1.15,2013-04-25 01:15:00,
2013-04-24 21:25:00,64.0,58.7,29.88,SSE,154,0.0,1.0,83,0.00,,,0.01,Wunderground v.1.15,2013-04-25 01:25:00,
2013-04-24 21:34:00,63.8,58.2,29.88,SSE,154,0.0,0.0,82,0.00,,,0.01,Wunderground v.1.15,2013-04-25 01:34:00,
2013-04-24 21:40:00,63.9,58.3,29.88,SSE,154,0.0,0.0,82,0.00,,,0.01,Wunderground v.1.15,2013-04-25 01:40:00,
2013-04-24 21:49:00,63.8,58.2,29.88,SSE,160,0.0,0.0,82,0.00,,,0.01,Wunderground v.1.15,2013-04-25 01:49:00,
2013-04-24 21:55:00,63.8,58.2,29.89,SSE,160,0.0,0.0,82,0.00,,,0.01,Wunderground v.1.15,2013-04-25 01:55:00,
2013-04-24 22:05:00,63.7,58.1,29.89,SSE,160,0.0,0.0,82,0.00,,,0.01,Wunderground v.1.15,2013-04-25 02:05:00,
2013-04-24 22:15:00,63.6,57.7,29.90,SSE,160,0.0,0.0,81,0.00,,,0.01,Wunderground v.1.15,2013-04-25 02:15:00,
2013-04-24 22:25:00,63.3,58.4,29.90,SSE,160,0.0,0.0,84,0.00,,,0.01,Wunderground v.1.15,2013-04-25 02:25:00,
2013-04-24 22:30:00,63.1,58.2,29.90,SSE,159,0.0,0.0,84,0.00,,,0.01,Wunderground v.1.15,2013-04-25 02:30:00,
2013-04-24 22:40:00,62.9,58.0,29.90,SSE,160,0.0,0.0,84,0.00,,,0.01,Wunderground v.1.15,2013-04-25 02:40:00,
2013-04-24 22:50:00,63.0,58.1,29.90,SSE,159,0.0,0.0,84,0.00,,,0.01,Wunderground v.1.15,2013-04-25 02:50:00,
2013-04-24 22:55:00,63.0,57.8,29.90,SSE,160,0.0,0.0,83,0.00,,,0.01,Wunderground v.1.15,2013-04-25 02:55:00,
2013-04-24 23:05:00,63.2,57.9,29.91,SSE,160,0.0,0.0,83,0.00,,,0.01,Wunderground v.1.15,2013-04-25 03:05:00,
2013-04-24 23:15:00,63.0,59.1,29.92,SSE,159,0.0,0.0,87,0.28,,,0.05,Wunderground v.1.15,2013-04-25 03:15:00,
2013-04-24 23:25:00,61.8,58.2,29.94,NNE,17,2.0,6.0,88,0.25,,,0.10,Wunderground v.1.15,2013-04-25 03:25:00,
2013-04-24 23:30:00,60.5,55.6,29.94,NNW,336,4.0,4.0,84,0.14,,,0.11,Wunderground v.1.15,2013-04-25 03:30:00,
2013-04-24 23:40:00,59.0,53.8,29.95,NNW,347,3.0,3.0,83,0.04,,,0.11,Wunderground v.1.15,2013-04-25 03:40:00,
2013-04-24 23:49:00,58.2,53.7,29.95,NNW,332,1.0,1.0,85,0.00,,,0.11,Wunderground v.1.15,2013-04-25 03:49:00,
2013-04-24 23:55:00,58.0,52.2,29.96,NW,320,1.0,1.0,81,0.00,,,0.11,Wunderground v.1.15,2013-04-25 03:55:00,